SCP
0 0 0 0 0 0 0 0 0 0 0 0 0 0 0 0 0 0 0 0 0 0 0 0 0 0 0 0 0 0 0 0 0 0 0 0 0 0 0 0 0 0 0 0 0
0 0 0 0 0 0 0 0 0 0 0 0 0 0 0 0 0 0 0 0 0 0 0 0 0 0 0 0 0 0 0 0 0 0 0 0 0 0 0 0 0 0 0 0 0
0 0 0 0 0 0 0 0 0 0 0 0 0 0 0 0 0 0 0 0 0 0 0 0 0 0 0 0 0 0 0 0 0 0 0 0 0 0 0 0 0 0 0 0 0
0 0 0 0 0 0 0 0 0 0 0 0 0 0 0 0 0 0 0 0 0 0 0 0 0 0 0 0 0 0 0 0 0 0 0 0 0 0 0 0 0 0 0 0 0
0 0 0 0 0 0 0 0 0 0 0 0 0 0 0 0 0 0 0 0 0 0 0 0 0 0 0 0 0 0 0 0 0 0 0 0 0 0 0 0 0 0 0 0 0
0 0 0 0 0 0 0 0 0 0 0 0 0 0 0 0 0 0 0 0 0 0 0 0 0 0 0 0 0 0 0 0 0 0 0 0 0 0 0 0 0 0 0 0 0
0 0 0 0 0 0 0 0 0 0 0 0 0 0 0 0 0 0 0 0 0 0 0 0 0 0 0 0 0 0 0 0 0 0 0 0 0 0 0 0 0 0 0 0 0
0 0 0 0 0 0 0 0 0 0 0 0 0 0 0 0 0 0 0 0 0 0 0 0 0 0 0 0 0 0 0 0 0 0 0 0 0 0 0 0 0 0 -0 0 0
0 0 0 0 0 0 0 0 0 0 0 0 0 0 0 0 0 0 0 0 0 0 0 0 0 0 0 0 0 0 0 0 0 0 0 0 0 0 0 0 0 0 0 0 0
0 0 0 0 0 0 0 0 0 0 0 0 0 0 0 0 0 0 0 0 0 0 0 0 0 0 0 0 0 0 0 0 0 0 0 0 0 0 0 0 0 0 0 0 0
0 0 0 0 0 0 0 0 0 0 0 0 0 0 0 0 0 0 0 0 0 0 0 0 0 0 0 0 0 0 0 0 0 0 0 0 0 0 0 0 0 0 0 0 0
0 0 0 0 0 0 0 0 0 0 0 0 0 0 0 0 0 0 0 0 0 0 0 0 0 0 0 0 0 0 0 0 0 0 0 0 0 0 0 0 0 0 0 0 0
0 0 0 0 0 0 0 0 0 0 0 0 0 0 0 0 0 0 0 0 0 0 0 0 0 0 0 0 0 0 0 0 0 0 0 0 0 0 0 0 0 0 0 0 0
0 0 0 0 0 0 0 0 0 0 0 0 0 0 0 0 0 0 0 0 0 0 0 0 0 0 0 0 0 0 0 0 0 0 0 0 0 0 0 0 0 0 0 0 0
0 0 0 0 0 0 0 0 0 0 0 0 0 0 0 0 0 0 0 0 0 0 0 0 0 0 0 0 0 0 0 0 0 0 0 0 0 0 0 0 0 0 0 0 0
0 0 0 0 0 0 0 0 0 0 0 0 0 0 0 0 0 0 0 0 0 0 0 0 0 0 0 0 0 0 0 0 0 0 0 0 0 0 0 0 0 0 0 0 0
0 0 0 0 0 0 0 0 0 0 0 0 0 0 0 0 0 0 0 0 0 0 0 0 0 0 0 0 0 0 0 0 0 0 0 0 0 0 0 0 0 0 0 0 0
0 0 0 0 0 0 0 0 0 0 0 0 0 0 0 0 0 0 0 0 0 0 0 0 0 0 0 0 0 0 0 0 0 0 0 0 0 0 0 0 0 0 0 0 0
0 0 0 0 0 0 0 0 0 0 0 0 0 0 0 0 0 0 0 0 0 0 0 0 0 0 0 0 0 0 0 0 0 0 0 0 0 0 0 0 0 0 0 0 0
0 0 0 0 0 0 0 0 0 0 0 0 0 0 0 0 0 0 0 0 0 0 0 0 0 0 0 0 0 0 0 0 0 0 0 0 0 0 0 0 0 0 0 0 0
0 0 0 0 0 0 0 0 0 0 0 0 0 0 0 0 0 0 0 0 0 0 0 0 0 0 0 0 0 0 0 0 0 0 0 0 0 0 0 0 0 0 0 0 0
0 0 0 0 0 0 0 0 0 0 0 0 0 0 0 0 0 0 0 0 0 0 0 0 0 0 0 0 0 0 0 0 0 0 0 0 0 0 0 0 0 0 0 0 0
0 0 0 0 0 0 0 0 0 0 0 0 0 0 0 0 0 0 0 0 0 0 0 0 0 0 0 0 0 0 0 0 0 0 0 0 0 0 0 0 0 0 0 0 0
0 0 0 0 0 0 0 0 0 0 0 0 0 0 0 0 0 0 0 0 0 0 0 0 0 0 0 0 0 0 0 0 0 0 0 0 0 0 0 0 0 0 0 0 0
0 0 0 0 0 0 0 0 0 0 0 0 0 0 0 0 0 0 0 0 0 0 0 0 0 0 0 0 0 0 0 0 0 0 0 0 0 0 0 0 0 0 0 0 0
0 0 0 0 0 0 0 0 0 0 0 0 0 0 0 0 0 0 0 0 0 0 0 0 0 0 0 0 0 0 0 0 0 0 0 0 0 0 0 0 0 0 0 0 0
0 0 0 0 0 0 0 0 0 0 0 0 0 0 0 0 0 0 0 0 0 0 0 0 0 0 0 0 0 0 0 0 0 0 0 0 0 0 0 0 0 0 0 0 0
Wind_Speed_500mb
9 8 7 6 6 6 7 7 9 9 11 13 15 16 19 20 23 26 25 6 8 10 8 7 6 4 3 3 2 1 8 2 6 4 6 20 13 11 15 11 11 10 18 27 29
13 12 11 10 9 10 10 11 13 13 14 16 18 19 21 22 25 14 1 6 8 8 8 7 7 5 4 1 3 7 7 12 7 7 4 10 8 26 10 19 41 42 33 28 30
17 15 14 14 14 14 14 15 16 17 17 17 19 19 21 22 22 3 5 6 8 9 9 13 8 5 1 5 8 8 9 7 7 9 8 12 19 8 9 11 41 54 55 47 40
21 19 18 18 18 18 18 17 17 18 18 18 19 19 20 16 6 7 8 6 8 10 10 9 11 8 5 6 11 4 18 22 15 30 16 8 12 17 18 47 50 46 45 38 35
25 24 23 22 21 20 18 17 18 19 19 19 19 20 18 12 18 20 17 17 17 17 15 13 15 12 5 6 4 7 8 15 20 33 31 27 27 22 52 44 36 33 27 21 21
30 29 27 25 22 20 20 20 19 20 19 19 19 18 16 15 17 19 19 18 17 15 16 20 10 8 5 8 5 2 10 23 24 47 38 18 15 1 24 23 29 23 30 24 24
34 30 27 26 25 23 22 20 19 19 19 19 20 20 23 27 21 17 15 14 16 17 17 22 21 11 3 3 7 7 10 16 26 11 8 2 5 14 24 33 34 25 24 29 24
34 32 30 28 26 23 21 19 18 20 20 21 21 19 16 19 18 19 19 17 17 19 18 20 17 11 6 2 9 4 5 6 7 3 1 11 16 17 27 35 36 34 31 11 7
37 36 33 29 25 23 21 20 20 21 23 22 18 15 12 12 15 16 14 10 11 14 15 12 12 5 5 9 8 7 6 9 16 4 2 5 13 21 43 36 45 31 5 10 12
39 36 33 27 22 23 20 21 20 23 24 19 21 7 19 11 12 12 12 13 7 12 12 9 7 6 5 7 9 10 8 8 11 9 7 12 17 25 45 44 20 1 19 22 23
40 36 32 28 25 24 18 17 13 10 28 19 11 8 6 16 16 16 16 17 14 9 9 7 7 14 25 19 6 4 6 12 11 13 4 15 14 29 29 29 9 32 34 35 36
41 37 33 29 27 23 19 13 15 7 15 32 42 39 33 22 11 15 21 20 13 11 12 7 14 20 6 10 9 9 8 13 15 8 3 10 25 11 23 16 26 36 37 38 38
44 39 35 31 29 27 25 22 14 9 7 14 24 17 23 28 14 20 35 17 11 11 15 15 10 13 12 7 8 10 10 9 15 10 6 8 15 5 10 30 37 37 37 39 42
48 43 40 31 28 29 31 25 17 4 3 10 9 8 17 15 8 20 35 14 6 18 14 11 14 13 8 11 12 10 10 9 5 4 7 5 9 11 6 13 20 32 37 38 41
52 47 41 37 21 36 23 25 16 6 9 4 7 12 14 13 18 9 25 12 10 10 12 13 8 7 7 13 13 13 3 1 1 3 4 8 1 13 15 5 8 20 31 34 35
59 51 47 44 42 38 27 29 14 6 16 7 10 12 9 8 9 13 10 9 5 3 3 9 2 9 14 3 5 6 7 12 8 6 2 13 13 10 9 12 13 22 29 29 29
65 59 62 56 62 47 39 27 4 12 1 12 10 11 10 11 7 10 11 11 12 11 10 4 9 4 7 7 3 7 10 6 7 4 10 7 6 12 14 1 32 34 35 29 27
72 66 70 70 66 61 49 8 18 16 13 7 10 10 13 14 10 11 11 7 10 2 6 9 7 12 6 10 12 10 15 9 10 6 7 11 10 7 7 24 42 42 36 29 24
80 83 76 62 54 63 49 14 13 13 11 18 8 9 8 9 9 8 15 11 15 19 15 10 9 2 4 5 9 7 7 6 9 4 4 9 2 4 8 9 25 32 29 24 19
83 75 69 62 59 58 17 19 10 8 8 8 16 10 14 10 11 14 16 9 10 13 7 11 1 7 4 7 7 8 12 6 3 2 10 10 10 10 17 17 14 20 28 26 20
77 30 45 63 59 20 15 8 9 14 11 10 15 10 11 12 14 11 9 1 8 6 11 9 7 5 7 9 16 1 5 4 8 10 10 4 10 6 17 24 24 30 34 32 26
37 7 35 45 11 5 8 12 11 8 11 7 7 10 16 16 12 12 18 11 19 23 15 9 9 8 15 7 3 7 13 13 12 11 8 5 16 2 13 28 39 40 39 36 29
33 11 52 63 13 8 5 7 9 11 13 15 17 10 7 14 5 13 11 2 11 15 18 14 1 4 14 10 3 8 5 4 9 6 10 9 14 3 13 21 33 23 30 35 36
18 5 9 25 12 19 14 12 14 21 9 8 8 10 8 12 8 10 5 1 4 4 9 10 9 15 16 10 7 6 10 8 8 5 6 20 11 13 15 14 15 23 34 40 42
21 11 17 13 19 11 16 13 25 14 13 27 9 18 15 12 11 13 8 5 9 9 4 7 10 7 3 9 6 8 16 16 17 13 16 35 23 36 21 10 26 26 25 33 38
14 12 9 10 35 29 17 17 22 17 16 10 10 16 15 16 14 14 13 8 10 2 4 4 3 5 7 3 8 15 25 10 23 31 28 32 41 32 38 10 10 17 23 32 35
13 12 1 17 13 21 20 24 16 18 3 9 20 11 11 11 14 16 14 15 17 16 13 10 11 6 10 6 5 17 18 33 25 21 15 22 27 5 9 12 19 21 25 27 28
Wind_Direction_500mb
233 240 243 251 266 278 288 297 302 306 310 313 315 318 320 321 317 315 311 271 253 257 236 203 191 206 180 116 34 44 60 225 243 29 296 343 3 336 322 287 296 245 280 301 301
242 242 248 254 261 272 283 291 295 299 303 305 308 312 316 321 320 317 350 114 130 132 133 151 166 164 136 162 174 103 118 225 202 162 275 294 276 308 300 306 292 292 303 306 293
247 250 256 262 268 273 278 284 289 294 296 298 303 310 314 322 325 181 147 129 138 150 159 171 168 181 195 187 198 167 194 224 258 273 282 292 293 277 307 299 296 305 314 308 301
249 252 257 265 269 273 278 280 284 288 291 294 296 299 301 311 295 205 197 202 222 256 249 226 210 180 196 222 207 170 249 247 271 288 298 287 292 301 257 277 302 312 316 313 297
253 258 260 260 262 264 267 272 276 280 284 286 287 286 285 266 251 254 242 259 269 251 235 217 198 190 193 232 308 207 277 269 273 288 288 282 267 268 281 297 301 317 356 3 349
257 260 262 260 259 262 266 269 273 279 285 286 285 282 268 243 260 246 251 249 243 224 223 202 190 175 264 247 195 240 298 290 288 281 282 265 282 224 280 305 309 301 341 349 344
255 254 252 255 259 260 261 266 273 277 281 281 278 271 258 263 259 245 245 238 234 229 217 207 215 222 179 309 345 310 316 316 280 277 236 228 315 224 297 298 292 290 348 338 344
245 247 250 250 252 254 260 266 271 275 277 276 274 265 252 255 244 244 246 244 230 226 221 216 218 241 228 287 330 333 36 325 276 360 350 149 259 276 308 297 287 309 341 341 360
245 244 241 242 246 251 257 263 266 270 269 269 263 234 255 239 228 236 234 212 211 216 214 216 213 201 138 92 358 348 224 215 306 307 93 197 255 268 294 291 295 325 23 73 65
238 238 240 239 239 246 255 263 267 266 259 256 237 240 234 218 202 197 191 175 167 163 147 159 148 88 52 105 226 217 218 244 243 270 37 269 251 258 276 292 301 134 112 90 76
235 233 234 233 232 244 251 263 263 247 228 218 212 202 204 206 205 202 203 186 160 162 155 169 111 207 208 200 164 172 216 244 264 259 246 272 279 293 318 277 298 118 102 90 80
234 234 232 227 224 236 240 229 222 219 285 249 247 247 249 231 216 200 184 174 173 188 132 61 224 229 177 174 203 227 239 259 272 266 211 314 294 29 22 31 93 113 105 98 93
232 228 229 225 222 228 233 233 232 220 261 270 238 231 224 222 218 208 186 185 175 181 193 167 216 157 171 199 206 227 201 241 239 339 281 344 296 132 65 78 80 86 94 88 83
227 223 223 220 228 224 225 218 205 236 38 252 213 206 179 167 210 178 185 179 197 205 158 231 237 195 185 228 182 273 204 221 212 95 239 42 283 314 150 83 72 89 94 95 92
224 222 223 211 205 200 213 194 184 167 285 191 162 160 161 181 136 174 188 193 184 186 124 242 188 148 169 218 157 227 128 102 142 183 41 306 116 266 117 130 114 103 108 105 97
222 218 215 216 206 202 185 174 159 72 242 192 146 170 141 183 166 133 160 172 146 150 176 249 342 167 200 100 168 115 38 32 54 118 284 223 170 274 191 186 147 147 130 118 107
220 215 215 216 207 194 181 156 138 215 206 189 185 162 187 173 183 170 164 173 163 136 210 215 212 222 159 115 41 95 70 308 337 356 231 128 130 249 322 166 156 151 141 130 117
220 218 221 218 201 191 176 148 210 200 205 146 140 131 183 160 204 181 132 203 239 126 122 174 292 173 178 188 184 169 160 161 222 225 279 322 244 290 9 91 138 144 139 137 127
219 220 211 192 188 186 168 202 201 194 188 149 94 145 218 221 155 149 191 197 209 173 176 167 266 129 181 150 136 179 173 161 112 9 270 237 336 185 86 81 132 147 154 151 148
220 188 186 187 191 179 182 211 211 206 144 140 169 160 180 210 165 178 184 198 204 192 174 203 96 223 173 110 47 150 161 80 29 179 251 285 260 216 194 185 184 173 175 172 175
186 161 172 167 173 175 199 213 240 193 139 172 189 141 194 185 190 196 204 237 164 125 129 142 127 224 122 198 181 149 198 113 149 163 182 240 257 254 177 187 187 193 195 195 201
153 133 170 167 116 168 209 178 215 193 186 199 156 164 178 177 185 217 206 207 176 155 160 195 147 168 206 274 324 193 199 172 203 218 234 186 257 10 178 166 179 195 209 214 219
143 118 177 177 180 191 195 195 226 188 183 184 193 188 173 170 200 209 199 70 171 168 167 179 224 45 342 344 16 186 205 131 86 60 212 215 249 350 139 153 189 223 230 227 226
148 132 198 223 177 183 169 193 204 215 194 161 174 144 142 186 207 201 152 117 18 134 142 143 160 176 211 177 139 189 167 136 131 159 205 233 281 210 212 205 226 255 264 251 224
158 194 179 187 200 154 171 181 206 196 218 191 211 198 164 189 167 194 141 120 25 128 69 135 197 164 144 133 141 221 238 160 198 217 221 266 245 264 269 211 248 261 248 225 209
159 145 180 190 182 183 173 204 197 183 163 207 202 182 180 187 187 187 138 173 183 154 126 10 243 80 307 231 211 259 263 237 235 254 257 255 266 273 286 255 195 211 209 204 208
232 161 202 177 164 180 206 197 191 154 205 193 198 138 191 185 138 111 125 126 152 153 169 156 137 105 256 64 63 290 222 229 240 225 224 233 244 241 255 235 239 225 210 197 198
Wind_Speed_850mb
9 8 7 6 6 6 7 7 9 9 11 13 15 16 19 20 23 26 25 6 8 10 8 7 6 4 3 3 2 1 8 2 6 4 6 20 13 11 15 11 11 10 18 27 29
13 12 11 10 9 10 10 11 13 13 14 16 18 19 21 22 25 14 1 6 8 8 8 7 7 5 4 1 3 7 7 12 7 7 4 10 8 26 10 19 41 42 33 28 30
17 15 14 14 14 14 14 15 16 17 17 17 19 19 21 22 22 3 5 6 8 9 9 13 8 5 1 5 8 8 9 7 7 9 8 12 19 8 9 11 41 54 55 47 40
21 19 18 18 18 18 18 17 17 18 18 18 19 19 20 16 6 7 8 6 8 10 10 9 11 8 5 6 11 4 18 22 15 30 16 8 12 17 18 47 50 46 45 38 35
25 24 23 22 21 20 18 17 18 19 19 19 19 20 18 12 18 20 17 17 17 17 15 13 15 12 5 6 4 7 8 15 20 33 31 27 27 22 52 44 36 33 27 21 21
30 29 27 25 22 20 20 20 19 20 19 19 19 18 16 15 17 19 19 18 17 15 16 20 10 8 5 8 5 2 10 23 24 47 38 18 15 1 24 23 29 23 30 24 24
34 30 27 26 25 23 22 20 19 19 19 19 20 20 23 27 21 17 15 14 16 17 17 22 21 11 3 3 7 7 10 16 26 11 8 2 5 14 24 33 34 25 24 29 24
34 32 30 28 26 23 21 19 18 20 20 21 21 19 16 19 18 19 19 17 17 19 18 20 17 11 6 2 9 4 5 6 7 3 1 11 16 17 27 35 36 34 31 11 7
37 36 33 29 25 23 21 20 20 21 23 22 18 15 12 12 15 16 14 10 11 14 15 12 12 5 5 9 8 7 6 9 16 4 2 5 13 21 43 36 45 31 5 10 12
39 36 33 27 22 23 20 21 20 23 24 19 21 7 19 11 12 12 12 13 7 12 12 9 7 6 5 7 9 10 8 8 11 9 7 12 17 25 45 44 20 1 19 22 23
40 36 32 28 25 24 18 17 13 10 28 19 11 8 6 16 16 16 16 17 14 9 9 7 7 14 25 19 6 4 6 12 11 13 4 15 14 29 29 29 9 32 34 35 36
41 37 33 29 27 23 19 13 15 7 15 32 42 39 33 22 11 15 21 20 13 11 12 7 14 20 6 10 9 9 8 13 15 8 3 10 25 11 23 16 26 36 37 38 38
44 39 35 31 29 27 25 22 14 9 7 14 24 17 23 28 14 20 35 17 11 11 15 15 10 13 12 7 8 10 10 9 15 10 6 8 15 5 10 30 37 37 37 39 42
48 43 40 31 28 29 31 25 17 4 3 10 9 8 17 15 8 20 35 14 6 18 14 11 14 13 8 11 12 10 10 9 5 4 7 5 9 11 6 13 20 32 37 38 41
52 47 41 37 21 36 23 25 16 6 9 4 7 12 14 13 18 9 25 12 10 10 12 13 8 7 7 13 13 13 3 1 1 3 4 8 1 13 15 5 8 20 31 34 35
59 51 47 44 42 38 27 29 14 6 16 7 10 12 9 8 9 13 10 9 5 3 3 9 2 9 14 3 5 6 7 12 8 6 2 13 13 10 9 12 13 22 29 29 29
65 59 62 56 62 47 39 27 4 12 1 12 10 11 10 11 7 10 11 11 12 11 10 4 9 4 7 7 3 7 10 6 7 4 10 7 6 12 14 1 32 34 35 29 27
72 66 70 70 66 61 49 8 18 16 13 7 10 10 13 14 10 11 11 7 10 2 6 9 7 12 6 10 12 10 15 9 10 6 7 11 10 7 7 24 42 42 36 29 24
80 83 76 62 54 63 49 14 13 13 11 18 8 9 8 9 9 8 15 11 15 19 15 10 9 2 4 5 9 7 7 6 9 4 4 9 2 4 8 9 25 32 29 24 19
83 75 69 62 59 58 17 19 10 8 8 8 16 10 14 10 11 14 16 9 10 13 7 11 1 7 4 7 7 8 12 6 3 2 10 10 10 10 17 17 14 20 28 26 20
77 30 45 63 59 20 15 8 9 14 11 10 15 10 11 12 14 11 9 1 8 6 11 9 7 5 7 9 16 1 5 4 8 10 10 4 10 6 17 24 24 30 34 32 26
37 7 35 45 11 5 8 12 11 8 11 7 7 10 16 16 12 12 18 11 19 23 15 9 9 8 15 7 3 7 13 13 12 11 8 5 16 2 13 28 39 40 39 36 29
33 11 52 63 13 8 5 7 9 11 13 15 17 10 7 14 5 13 11 2 11 15 18 14 1 4 14 10 3 8 5 4 9 6 10 9 14 3 13 21 33 23 30 35 36
18 5 9 25 12 19 14 12 14 21 9 8 8 10 8 12 8 10 5 1 4 4 9 10 9 15 16 10 7 6 10 8 8 5 6 20 11 13 15 14 15 23 34 40 42
21 11 17 13 19 11 16 13 25 14 13 27 9 18 15 12 11 13 8 5 9 9 4 7 10 7 3 9 6 8 16 16 17 13 16 35 23 36 21 10 26 26 25 33 38
14 12 9 10 35 29 17 17 22 17 16 10 10 16 15 16 14 14 13 8 10 2 4 4 3 5 7 3 8 15 25 10 23 31 28 32 41 32 38 10 10 17 23 32 35
13 12 1 17 13 21 20 24 16 18 3 9 20 11 11 11 14 16 14 15 17 16 13 10 11 6 10 6 5 17 18 33 25 21 15 22 27 5 9 12 19 21 25 27 28
Wind_Direction_850mb
233 240 243 251 266 278 288 297 302 306 310 313 315 318 320 321 317 315 311 271 253 257 236 203 191 206 180 116 34 44 60 225 243 29 296 343 3 336 322 287 296 245 280 301 301
242 242 248 254 261 272 283 291 295 299 303 305 308 312 316 321 320 317 350 114 130 132 133 151 166 164 136 162 174 103 118 225 202 162 275 294 276 308 300 306 292 292 303 306 293
247 250 256 262 268 273 278 284 289 294 296 298 303 310 314 322 325 181 147 129 138 150 159 171 168 181 195 187 198 167 194 224 258 273 282 292 293 277 307 299 296 305 314 308 301
249 252 257 265 269 273 278 280 284 288 291 294 296 299 301 311 295 205 197 202 222 256 249 226 210 180 196 222 207 170 249 247 271 288 298 287 292 301 257 277 302 312 316 313 297
253 258 260 260 262 264 267 272 276 280 284 286 287 286 285 266 251 254 242 259 269 251 235 217 198 190 193 232 308 207 277 269 273 288 288 282 267 268 281 297 301 317 356 3 349
257 260 262 260 259 262 266 269 273 279 285 286 285 282 268 243 260 246 251 249 243 224 223 202 190 175 264 247 195 240 298 290 288 281 282 265 282 224 280 305 309 301 341 349 344
255 254 252 255 259 260 261 266 273 277 281 281 278 271 258 263 259 245 245 238 234 229 217 207 215 222 179 309 345 310 316 316 280 277 236 228 315 224 297 298 292 290 348 338 344
245 247 250 250 252 254 260 266 271 275 277 276 274 265 252 255 244 244 246 244 230 226 221 216 218 241 228 287 330 333 36 325 276 360 350 149 259 276 308 297 287 309 341 341 360
245 244 241 242 246 251 257 263 266 270 269 269 263 234 255 239 228 236 234 212 211 216 214 216 213 201 138 92 358 348 224 215 306 307 93 197 255 268 294 291 295 325 23 73 65
238 238 240 239 239 246 255 263 267 266 259 256 237 240 234 218 202 197 191 175 167 163 147 159 148 88 52 105 226 217 218 244 243 270 37 269 251 258 276 292 301 134 112 90 76
235 233 234 233 232 244 251 263 263 247 228 218 212 202 204 206 205 202 203 186 160 162 155 169 111 207 208 200 164 172 216 244 264 259 246 272 279 293 318 277 298 118 102 90 80
234 234 232 227 224 236 240 229 222 219 285 249 247 247 249 231 216 200 184 174 173 188 132 61 224 229 177 174 203 227 239 259 272 266 211 314 294 29 22 31 93 113 105 98 93
232 228 229 225 222 228 233 233 232 220 261 270 238 231 224 222 218 208 186 185 175 181 193 167 216 157 171 199 206 227 201 241 239 339 281 344 296 132 65 78 80 86 94 88 83
227 223 223 220 228 224 225 218 205 236 38 252 213 206 179 167 210 178 185 179 197 205 158 231 237 195 185 228 182 273 204 221 212 95 239 42 283 314 150 83 72 89 94 95 92
224 222 223 211 205 200 213 194 184 167 285 191 162 160 161 181 136 174 188 193 184 186 124 242 188 148 169 218 157 227 128 102 142 183 41 306 116 266 117 130 114 103 108 105 97
222 218 215 216 206 202 185 174 159 72 242 192 146 170 141 183 166 133 160 172 146 150 176 249 342 167 200 100 168 115 38 32 54 118 284 223 170 274 191 186 147 147 130 118 107
220 215 215 216 207 194 181 156 138 215 206 189 185 162 187 173 183 170 164 173 163 136 210 215 212 222 159 115 41 95 70 308 337 356 231 128 130 249 322 166 156 151 141 130 117
220 218 221 218 201 191 176 148 210 200 205 146 140 131 183 160 204 181 132 203 239 126 122 174 292 173 178 188 184 169 160 161 222 225 279 322 244 290 9 91 138 144 139 137 127
219 220 211 192 188 186 168 202 201 194 188 149 94 145 218 221 155 149 191 197 209 173 176 167 266 129 181 150 136 179 173 161 112 9 270 237 336 185 86 81 132 147 154 151 148
220 188 186 187 191 179 182 211 211 206 144 140 169 160 180 210 165 178 184 198 204 192 174 203 96 223 173 110 47 150 161 80 29 179 251 285 260 216 194 185 184 173 175 172 175
186 161 172 167 173 175 199 213 240 193 139 172 189 141 194 185 190 196 204 237 164 125 129 142 127 224 122 198 181 149 198 113 149 163 182 240 257 254 177 187 187 193 195 195 201
153 133 170 167 116 168 209 178 215 193 186 199 156 164 178 177 185 217 206 207 176 155 160 195 147 168 206 274 324 193 199 172 203 218 234 186 257 10 178 166 179 195 209 214 219
143 118 177 177 180 191 195 195 226 188 183 184 193 188 173 170 200 209 199 70 171 168 167 179 224 45 342 344 16 186 205 131 86 60 212 215 249 350 139 153 189 223 230 227 226
148 132 198 223 177 183 169 193 204 215 194 161 174 144 142 186 207 201 152 117 18 134 142 143 160 176 211 177 139 189 167 136 131 159 205 233 281 210 212 205 226 255 264 251 224
158 194 179 187 200 154 171 181 206 196 218 191 211 198 164 189 167 194 141 120 25 128 69 135 197 164 144 133 141 221 238 160 198 217 221 266 245 264 269 211 248 261 248 225 209
159 145 180 190 182 183 173 204 197 183 163 207 202 182 180 187 187 187 138 173 183 154 126 10 243 80 307 231 211 259 263 237 235 254 257 255 266 273 286 255 195 211 209 204 208
232 161 202 177 164 180 206 197 191 154 205 193 198 138 191 185 138 111 125 126 152 153 169 156 137 105 256 64 63 290 222 229 240 225 224 233 244 241 255 235 239 225 210 197 198